Portada
METAR-TAF:

METAR-TAF

Aeroports :

Black River Falls, Wisconsin, Estats Units d'Amèrica

latitud: 44-15-03N, longitud: 090-51-19W, altitud: 255 m

Observació

L'informe es va fer fa 15 minuts, a les 18:35 UTC
Vent 8 kt del Sud-Est
Temperatura 26°C
Humitat 45%
Pressió 1011 hPa
Visibilitat: 16.1 km
Núvols disperses a una alçada de 10000 ft

METAR: KBCK 191835Z AUTO 13008KT 10SM SCT100 26/13 A2986 RMK AO2 LTG DSNT SW T02560126

Hora: 13:50 (18:50 UTC)


TAF: manca

Observacions i pronòstics meteorològics de més de 4000 aeroports (METAR i TAF).

Les estacions disponibles són els punts grocs i vermells al mapa.

Posi el ratolí al punt desitjat per veure el nom de l'estació.

Feu clic per veure les observacions i els pronòstics meteorològics.

Per canviar el mapa: feu clic els botons verds amb una creu de color negre per apropar; al botó verd amb un guió per allunyar la imatge; o en les fletxes verdes per a mapes adjacents.


METAR-TAF: